Bluewater, NM

8:45 PM MST on February 12, 2016 (GMT -0700)
Grants-Milan Municipal

Weather History for KGNT - December, 2013

Change the Weather History Date:

Sunday, December 8, 2013

  Actual Average Record
Temperature  
Mean Temperature 28 °F -  
Max Temperature 32 °F 47 °F 66 °F (1958)
Min Temperature 23 °F 17 °F -16 °F (1978)
Degree Days  
Heating Degree Days 38    
Moisture  
Dew Point 20 °F    
Average Humidity 70    
Maximum Humidity 90    
Minimum Humidity 54    
Precipitation  
Precipitation 0.00 in - - ()
Sea Level Pressure  
Sea Level Pressure 29.89 in    
Wind  
Wind Speed 14 mph (WNW)    
Max Wind Speed 24 mph    
Max Gust Speed 39 mph    
Averages and records for this station are not official NWS values.
T = Trace of Precipitation, MM = Missing Value Source: NWS Daily Summary

Daily Weather History Graph

Daily Weather History Graph

Search for Another Location

Airport or City:

Trip Planner

Search our weather history database for the weather conditions in past years. The results will help you decide how hot, cold, wet, or windy it might be!

Date:

Astronomy

Dec. 08, 2013 Rise Set
Actual Time 7:07 AM MST 4:59 PM MST
Civil Twilight 6:39 AM MST 5:27 PM MST
Nautical Twilight 6:08 AM MST 5:59 PM MST
Astronomical Twilight 5:37 AM MST 6:29 PM MST
Moon 11:40 AM MST (12/8) 11:40 PM MST (12/8)
Length of Visible Light 10h 47m
Length of Day
9h 51m
Waxing Crescent, 40% of the Moon is Illuminated
Dec 8
Waxing Crescent
Dec 9
First Quarter
Dec 17
Full
Dec 25
Last Quarter
Jan 1
New

Hourly Weather History & Observations

Time (MST) Temp. Windchill Dew Point Humidity Pressure Visibility Wind Dir Wind Speed Gust Speed Precip Events Conditions
12:15 AM 30.6 °F 21.2 °F 19.9 °F 65% 29.84 in - WSW 11.5 mph 27.6 mph N/A   Overcast
12:35 AM 30.6 °F 20.7 °F 19.8 °F 64% 29.82 in - SW 12.7 mph 20.7 mph N/A   Overcast
12:55 AM 31.1 °F 19.7 °F 19.8 °F 63% 29.81 in - WSW 17.3 mph 25.3 mph N/A   Overcast
1:15 AM 31.5 °F 21.4 °F 19.4 °F 61% 29.80 in - WSW 13.8 mph 28.8 mph N/A   Overcast
1:35 AM 32.0 °F 22.1 °F 19.9 °F 61% 29.79 in - SW 13.8 mph 31.1 mph N/A   Overcast
1:55 AM 32.0 °F 21.6 °F 19.9 °F 61% 29.79 in - WSW 15.0 mph 39.1 mph N/A   Overcast
2:15 AM 32.0 °F 20.8 °F 20.1 °F 62% 29.79 in - WSW 17.3 mph 28.8 mph N/A   Overcast
2:35 AM 32.0 °F 22.1 °F 21.0 °F 64% 29.80 in - WSW 13.8 mph 24.2 mph N/A   Overcast
2:55 AM 32.0 °F 20.8 °F 21.2 °F 64% 29.80 in - WSW 17.3 mph 28.8 mph N/A   Overcast
3:15 AM 32.0 °F 22.5 °F 21.7 °F 66% 29.80 in - WSW 12.7 mph 26.5 mph N/A   Overcast
3:35 AM 32.0 °F 21.6 °F 21.2 °F 64% 29.80 in - WSW 15.0 mph 28.8 mph N/A   Overcast
3:55 AM 31.8 °F 18.7 °F 23.2 °F 70% 29.79 in - WSW 24.2 mph 33.4 mph N/A   Overcast
4:15 AM 31.8 °F 20.2 °F 22.5 °F 68% 29.79 in - West 18.4 mph 34.5 mph N/A   Overcast
4:35 AM 32.0 °F 19.5 °F 22.3 °F 67% 29.79 in - West 21.9 mph 31.1 mph N/A   Overcast
4:55 AM 32.0 °F 19.2 °F 22.5 °F 68% 29.78 in - WSW 23.0 mph 31.1 mph N/A   Overcast
5:15 AM 32.0 °F 19.8 °F 21.0 °F 64% 29.77 in - West 20.7 mph 35.7 mph N/A   Mostly Cloudy
5:35 AM 31.6 °F 20.0 °F 22.8 °F 70% 29.78 in - West 18.4 mph 36.8 mph N/A   Mostly Cloudy
5:55 AM 32.0 °F 21.2 °F 21.2 °F 64% 29.79 in - WSW 16.1 mph 28.8 mph N/A   Overcast
6:15 AM 30.7 °F 26.0 °F 24.6 °F 78% 29.81 in - WSW 4.6 mph - N/A   Overcast
6:35 AM 29.1 °F 15.7 °F 26.6 °F 90% 29.82 in - WNW 21.9 mph 28.8 mph N/A   Overcast
6:55 AM 28.0 °F 17.5 °F 24.1 °F 85% 29.84 in - North 12.7 mph 32.2 mph N/A   Unknown
7:15 AM 24.1 °F 11.0 °F 21.0 °F 88% 29.84 in - North 16.1 mph 19.6 mph N/A   Unknown
7:35 AM 29.3 °F 17.0 °F 20.5 °F 70% 29.86 in - WNW 18.4 mph 31.1 mph N/A   Mostly Cloudy
7:55 AM 29.1 °F 18.4 °F 20.5 °F 70% 29.87 in - WNW 13.8 mph 23.0 mph N/A   Mostly Cloudy
8:15 AM 28.4 °F 18.0 °F 21.6 °F 76% 29.89 in - NW 12.7 mph 20.7 mph N/A   Overcast
8:35 AM 25.7 °F 14.6 °F 21.9 °F 86% 29.90 in - North 12.7 mph - N/A   Overcast
8:55 AM 25.2 °F 13.9 °F 21.9 °F 87% 29.91 in - North 12.7 mph 20.7 mph N/A   Unknown
9:15 AM 24.8 °F 13.4 °F 22.1 °F 89% 29.92 in - North 12.7 mph 17.3 mph N/A   Unknown
9:35 AM 24.8 °F 14.0 °F 21.4 °F 87% 29.94 in - North 11.5 mph - N/A   Unknown
9:55 AM 25.7 °F 13.1 °F 21.0 °F 82% 29.95 in - North 16.1 mph 19.6 mph N/A   Overcast
10:15 AM 24.4 °F 11.5 °F 20.3 °F 84% 29.96 in - North 16.1 mph 20.7 mph N/A   Overcast
10:35 AM 25.2 °F 12.4 °F 19.9 °F 81% 29.96 in - North 16.1 mph 21.9 mph N/A   Overcast
10:55 AM 25.7 °F 13.5 °F 19.4 °F 77% 29.96 in - NNW 15.0 mph - N/A   Overcast
11:15 AM 27.0 °F 15.6 °F 18.9 °F 72% 29.96 in - NNW 13.8 mph - N/A   Overcast
11:35 AM 28.0 °F 17.0 °F 18.9 °F 68% 29.96 in - NNW 13.8 mph 20.7 mph N/A   Overcast
11:55 AM 28.4 °F 16.6 °F 19.4 °F 69% 29.95 in - NNW 16.1 mph 19.6 mph N/A   Overcast
12:15 PM 30.6 °F 18.6 °F 18.5 °F 61% 29.94 in - WNW 18.4 mph 25.3 mph N/A   Overcast
12:35 PM 30.7 °F 19.2 °F 17.1 °F 57% 29.93 in - WNW 17.3 mph 29.9 mph N/A   Overcast
12:55 PM 30.4 °F 18.4 °F 17.6 °F 59% 29.93 in - NW 18.4 mph 27.6 mph N/A   Overcast
1:15 PM 31.6 °F 19.3 °F 17.4 °F 56% 29.93 in - WNW 20.7 mph 26.5 mph N/A   Overcast
1:35 PM 31.1 °F 19.7 °F 17.6 °F 57% 29.92 in - WNW 17.3 mph 24.2 mph N/A   Overcast
1:55 PM 31.5 °F 20.9 °F 17.8 °F 57% 29.92 in - WNW 15.0 mph 21.9 mph N/A   Overcast
2:15 PM 32.0 °F 21.2 °F 18.3 °F 57% 29.92 in - West 16.1 mph 21.9 mph N/A   Mostly Cloudy
2:35 PM 32.0 °F 23.0 °F 17.4 °F 55% 29.92 in - West 11.5 mph 23.0 mph N/A   Mostly Cloudy
2:55 PM 32.0 °F 23.0 °F 17.1 °F 54% 29.92 in - NW 11.5 mph 19.6 mph N/A   Mostly Cloudy
3:15 PM 31.8 °F 22.3 °F 17.6 °F 56% 29.92 in - WNW 12.7 mph - N/A   Overcast
3:35 PM 31.1 °F 22.4 °F 17.8 °F 58% 29.92 in - West 10.4 mph 20.7 mph N/A   Overcast
3:55 PM 30.2 °F 20.8 °F 18.1 °F 61% 29.92 in - WNW 11.5 mph - N/A   Overcast
4:15 PM 28.9 °F 19.2 °F 18.1 °F 64% 29.91 in - WNW 11.5 mph 16.1 mph N/A   Overcast
4:35 PM 28.4 °F 18.5 °F 18.3 °F 66% 29.91 in - WNW 11.5 mph - N/A   Overcast
4:55 PM 27.5 °F 19.3 °F 18.5 °F 69% 29.92 in - NW 8.1 mph - N/A   Overcast
5:15 PM 27.3 °F 20.9 °F 18.3 °F 69% 29.92 in - North 5.8 mph - N/A   Overcast
5:35 PM 26.6 °F 19.1 °F 18.3 °F 71% 29.91 in - North 6.9 mph - N/A   Overcast
5:55 PM 27.5 °F 18.0 °F 18.5 °F 69% 29.92 in - North 10.4 mph - N/A   Overcast
6:15 PM 27.1 °F 20.7 °F 18.5 °F 70% 29.92 in - North 5.8 mph - N/A   Overcast
6:35 PM 25.7 °F 19.0 °F 18.0 °F 73% 29.92 in - North 5.8 mph - N/A   Overcast
6:55 PM 25.7 °F 18.0 °F 18.3 °F 74% 29.92 in - NNW 6.9 mph - N/A   Overcast
7:15 PM 25.7 °F 18.0 °F 18.5 °F 74% 29.94 in - NW 6.9 mph - N/A   Overcast
7:35 PM 25.7 °F 18.0 °F 18.7 °F 75% 29.94 in - WNW 6.9 mph - N/A   Overcast
7:55 PM 25.7 °F 18.0 °F 19.0 °F 76% 29.95 in - NW 6.9 mph - N/A   Overcast
8:15 PM 25.5 °F 18.7 °F 19.2 °F 77% 29.95 in - NNW 5.8 mph - N/A   Overcast
8:35 PM 25.2 °F 18.3 °F 19.2 °F 78% 29.95 in - NW 5.8 mph - N/A   Overcast
8:55 PM 24.8 °F 19.1 °F 19.4 °F 80% 29.95 in - NW 4.6 mph - N/A   Overcast
9:15 PM 24.8 °F 19.1 °F 19.6 °F 81% 29.96 in - NNW 4.6 mph - N/A   Overcast
9:35 PM 24.4 °F 18.6 °F 19.6 °F 82% 29.96 in - West 4.6 mph - N/A   Overcast
9:55 PM 23.9 °F - 19.8 °F 84% 29.96 in - Calm Calm - N/A   Overcast
10:15 PM 23.7 °F - 19.9 °F 85% 29.96 in - Calm Calm - N/A   Unknown
10:35 PM 25.3 °F 16.7 °F 19.4 °F 78% 29.96 in - West 8.1 mph - N/A   Overcast
10:55 PM 27.3 °F 22.0 °F 19.0 °F 71% 29.96 in - WSW 4.6 mph - N/A   Overcast
11:15 PM 27.7 °F 18.2 °F 18.9 °F 69% 29.96 in - West 10.4 mph 16.1 mph N/A   Overcast
11:35 PM 26.4 °F 16.6 °F 18.9 °F 73% 29.96 in - WNW 10.4 mph 17.3 mph N/A   Overcast
11:55 PM 25.7 °F 17.1 °F 18.0 °F 73% 29.96 in - West 8.1 mph - N/A   Overcast